User: anonymous   Login
Location: Unspecified
(0.0000°N, 0.0000°E)
Time: 15:49:12
(UTC+02:00)
Language:

ARIANE 5 R/B - Orbit

View from above orbital plane
View from above orbital plane
View from above satellite
View from above satellite

Ground track
Ground track

The orbit data is extracted from the following two-line orbital elements,

1 28886U 05041C   16268.97260977 -.00000254  00000-0  34171-3 0  9993
2 28886   7.8927 101.5090 7186711 262.5767   6.9311  2.24330608 89778
Epoch (UTC): 24 September 2016 23:20:33
Eccentricity: 0.7186711
inclination: 7.8927°
perigee height: 556 km
apogee height: 35986 km
right ascension of ascending node: 101.5090°
argument of perigee: 262.5767°
revolutions per day: 2.24330608
mean anomaly at epoch: 6.9311°
orbit number at epoch: 8977

The dashed part of the orbit path shows where the satellite is in the earth's shadow,  

DLR